This demonstration page uses our WeatherBlox Daily Observations layout. Learn more.

Left ArrowRight Arrow

38.88101, -77.10428

Hourly Observations for November 25, 2021

Temp ( °F °C ) Dew Point ( °F °C ) Humidity (%) Winds ( mph kmh ) Pressure ( in mb ) Visibility ( mi km ) Precip ( " mm )
12:52 am 00:52 Mostly Clear 38 3.3 26 -3.3 62 62 SW 3 6 30.29 1026 10 16 N/A
1:52 am 01:52 Mostly Clear 37 2.8 29 -1.7 73 73 SW 7 11 30.26 1025 10 16 N/A
2:52 am 02:52 Mostly Cloudy 37 2.8 28 -2.2 70 70 SW 5 7 30.26 1025 10 16 N/A
3:52 am 03:52 Cloudy 38 3.3 27 -2.8 65 65 SW 3 6 30.22 1024 10 16 N/A
4:52 am 04:52 Mostly Cloudy 37 2.8 27 -2.8 67 67 SSW 5 7 30.22 1023 10 16 N/A
5:52 am 05:52 Mostly Cloudy 35 1.7 27 -2.8 72 72 SSW 6 9 30.19 1022 10 16 N/A
6:52 am 06:52 Mostly Cloudy 36 2.2 27 -2.8 70 70 SSW 5 7 30.18 1022 10 16 N/A
7:52 am 07:52 Mostly Cloudy 37 2.8 29 -1.7 73 73 S 3 6 30.18 1022 10 16 N/A
8:52 am 08:52 Mostly Cloudy 39 3.9 29 -1.7 67 67 S 6 9 30.16 1021 10 16 N/A
9:52 am 09:52 Mostly Cloudy 42 5.6 30 -1.1 62 62 S 8 13 30.14 1021 10 16 N/A
10:52 am 10:52 Cloudy 45 7.2 30 -1.1 56 56 SSE 6 9 30.12 1020 10 16 N/A
11:52 am 11:52 Cloudy 49 9.4 30 -1.1 48 48 S 8 13 30.08 1019 10 16 N/A
12:52 pm 12:52 Mostly Cloudy 50 10 28 -2.2 43 43 S 8 13 30.03 1017 10 16 N/A
1:52 pm 13:52 Mostly Cloudy 56 13.3 29 -1.7 36 36 SW 5 7 29.99 1016 10 16 N/A
2:52 pm 14:52 Mostly Cloudy 57 13.9 28 -2.2 33 33 SSE 3 6 29.99 1016 10 16 N/A
3:52 pm 15:52 Mostly Cloudy 54 12.2 30 -1.1 40 40 S 8 13 29.96 1015 10 16 N/A
4:52 pm 16:52 Mostly Cloudy 51 10.6 33 0.6 50 50 S 9 15 29.94 1014 10 16 N/A
5:52 pm 17:52 Mostly Cloudy 53 11.7 29 -1.7 40 40 SSW 3 6 29.94 1014 10 16 N/A
6:52 pm 18:52 Mostly Cloudy 50 10 33 0.6 52 52 S 6 9 29.92 1013 10 16 N/A
7:52 pm 19:52 Mostly Cloudy 51 10.6 31 -0.6 46 46 SSW 5 7 29.88 1012 10 16 N/A
8:52 pm 20:52 Mostly Cloudy 49 9.4 32 undefined 52 52 NNW 5 7 29.87 1012 10 16 N/A
9:52 pm 21:52 Cloudy 48 8.9 36 2.2 63 63 N N/A 29.86 1011 10 16 N/A
10:52 pm 22:52 Cloudy 50 10 33 0.6 52 52 N N/A 29.85 1011 10 16 N/A
11:52 pm 23:52 Cloudy with Light Rain 48 8.9 39 3.9 71 71 S 3 6 29.82 1010 10 16 0.00 0.00

Powered by AerisWeather